Lapse_Rate
1.6 1.2 1.0 1.1 0.4 -0.1 -0.4 -0.6 -0.2 -0.1 0.1 0.3 0.6 0.6 0.6 0.4 0.9 1.2 1.3 1.7 1.5 1.8
1.4 1.1 1.0 0.8 0.1 -0.4 -0.3 0.5 0.4 0.0 -0.4 0.0 0.1 0.3 -0.0 -0.2 0.7 1.0 1.4 1.2 1.4 1.2
1.3 1.1 0.9 0.5 0.8 0.3 -0.1 0.1 -0.2 -0.4 -0.3 -0.1 0.2 0.5 0.5 0.4 0.9 1.0 1.1 1.5 1.4 1.1
1.6 1.5 0.9 0.7 0.4 0.3 0.1 -0.2 0.0 -0.0 0.1 0.4 0.6 0.8 0.9 1.0 1.1 1.1 1.2 1.4 1.4 1.4
1.6 1.2 0.9 0.7 0.6 0.2 0.4 0.3 0.2 0.3 0.6 0.8 1.0 0.8 0.9 0.9 1.0 1.2 1.3 1.4 1.5 1.3
1.3 1.0 0.9 0.8 0.7 0.6 0.4 0.4 0.4 0.8 1.0 1.0 1.0 0.9 0.9 0.9 0.9 0.9 1.0 1.1 1.3 1.4
1.2 0.9 0.8 0.7 0.7 0.8 0.8 0.7 0.8 0.9 1.0 1.0 0.9 1.1 1.2 1.3 1.1 0.9 1.1 1.1 1.1 1.2
1.2 0.9 1.0 1.1 1.0 0.9 1.0 1.1 0.9 1.0 1.1 0.9 1.0 2.0 1.5 1.4 1.2 0.9 0.7 0.9 1.1 1.3
1.5 1.3 1.4 1.3 1.3 1.3 1.4 1.2 1.2 1.2 0.9 0.5 1.3 3.0 3.9 3.7 1.3 1.3 1.3 1.0 1.1 1.0
1.9 1.8 1.8 1.7 1.8 1.8 1.6 1.1 1.0 0.7 0.6 0.5 0.5 3.3 4.2 4.5 2.3 1.5 1.1 1.1 1.2 1.4
2.3 2.1 2.0 2.0 2.0 1.5 1.1 1.1 0.9 0.8 0.8 0.6 1.3 3.8 4.2 4.5 2.4 1.4 1.0 0.8 0.7 0.5
2.2 2.1 2.2 2.1 1.8 1.5 1.1 1.0 1.0 1.1 0.8 0.8 0.8 3.4 4.3 4.2 2.0 1.6 1.3 1.2 1.1 0.8
2.2 2.4 2.3 1.9 1.5 1.4 1.3 1.2 0.6 0.8 1.0 2.0 1.6 3.1 4.4 4.6 2.2 1.8 2.0 1.6 1.6 3.7
2.4 2.3 1.9 1.2 1.0 1.0 0.6 0.4 0.4 0.6 0.7 0.8 1.3 1.0 4.2 5.1 3.5 2.7 3.1 2.6 2.6 1.9
Wind_Speed
5 4 3 2 2 2 1 3 4 5 5 6 6 6 4 2 4 4 5 6 5 3
5 4 3 3 0 1 2 2 4 5 4 5 5 4 3 3 5 4 5 6 5 4
5 3 2 2 1 1 2 2 3 4 4 5 4 4 2 3 4 4 4 4 5 5
3 3 2 1 0 1 2 3 3 4 5 5 5 4 3 4 4 5 5 4 5 6
2 2 2 1 1 1 2 3 3 4 4 4 4 4 4 4 4 4 5 6 5 6
3 2 1 1 1 1 2 3 3 3 3 4 4 5 5 4 5 5 5 5 5 6
1 2 2 1 1 2 2 3 4 4 4 4 5 5 5 4 5 5 4 5 5 5
2 2 2 2 2 2 3 3 4 4 5 5 4 4 5 5 5 5 6 5 5 5
3 3 3 3 3 2 3 4 3 4 5 6 3 10 12 8 5 6 6 6 6 5
3 3 3 2 2 4 4 3 5 5 5 6 6 11 12 12 5 5 6 6 5 6
2 3 3 2 4 4 3 4 4 5 5 5 6 11 13 13 6 6 7 6 6 6
3 3 3 4 4 4 3 3 3 3 6 5 7 11 14 11 6 6 7 6 6 6
4 3 3 4 4 2 2 4 4 6 5 8 7 14 15 12 4 6 6 6 7 13
1 2 3 4 2 3 4 4 6 6 6 7 8 8 15 15 5 5 6 6 6 5
Wind_Direction
194 196 204 200 197 228 258 285 306 318 318 308 304 297 259 230 238 220 232 239 230 237
199 182 191 203 173 304 285 290 329 328 325 324 313 296 257 229 240 219 225 232 233 224
181 171 147 149 246 284 304 317 330 337 335 325 318 313 282 265 260 239 244 232 233 235
155 165 154 157 233 268 301 329 334 331 328 332 329 325 311 283 270 254 265 255 245 255
139 144 160 194 240 311 331 334 328 329 325 319 315 315 311 304 306 288 290 284 279 272
176 174 195 258 309 334 319 314 318 309 302 302 304 304 301 292 294 291 281 278 275 278
211 211 215 231 265 278 289 301 306 297 295 301 303 298 295 298 299 290 278 278 272 274
225 202 208 237 259 277 290 293 295 300 301 300 294 284 298 289 285 284 288 282 271 261
215 214 230 248 268 286 292 292 286 295 294 302 295 302 302 299 287 286 274 279 279 273
222 242 259 268 281 288 288 292 295 299 304 298 294 297 299 299 281 275 265 263 275 291
249 265 278 264 269 275 270 273 280 288 293 299 295 300 302 301 284 274 265 260 261 262
223 233 245 273 280 265 263 285 286 289 302 294 294 304 308 308 291 280 276 268 256 256
197 211 268 283 292 265 265 291 309 303 281 289 283 300 304 305 274 278 278 273 261 270
292 288 274 281 254 289 304 305 301 297 293 285 274 278 293 298 288 268 278 268 269 258